Hourly Weather Reny

Today, 15 July, Wednesday

Time Temperature Precipitation Wind Pressure Humidity
00:00 +18°C° 0 mm 1 mps 758 mmHg 59%
01:00 +16°C° 0 mm 1 mps 758 mmHg 61%
02:00 +16°C° 0 mm 1 mps 758 mmHg 63%
03:00 +16°C° 0 mm 1 mps 758 mmHg 64%
04:00 +15°C° 0 mm 1 mps 758 mmHg 65%
05:00 +14°C° 0 mm 0 mps 758 mmHg 65%
06:00 +16°C° 0 mm 0 mps 758 mmHg 60%
07:00 +18°C° 0 mm 0 mps 758 mmHg 54%
08:00 +20°C° 0 mm 0 mps 758 mmHg 49%
09:00 +23°C° 0 mm 1 mps 758 mmHg 46%
10:00 +25°C° 0 mm 1 mps 758 mmHg 43%
11:00 +26°C° 0 mm 2 mps 758 mmHg 40%
12:00 +27°C° 0 mm 2 mps 757 mmHg 37%
13:00 +27°C° 0 mm 2 mps 757 mmHg 35%
14:00 +28°C° 0 mm 2 mps 757 mmHg 32%
15:00 +28°C° 0 mm 2 mps 756 mmHg 32%
16:00 +28°C° 0 mm 2 mps 756 mmHg 32%
17:00 +28°C° 0 mm 2 mps 756 mmHg 32%
18:00 +27°C° 0 mm 2 mps 756 mmHg 38%
19:00 +25°C° 0 mm 2 mps 756 mmHg 44%
20:00 +23°C° 0 mm 2 mps 756 mmHg 50%
21:00 +21°C° 0 mm 3 mps 756 mmHg 54%
22:00 +20°C° 0 mm 3 mps 756 mmHg 59%
23:00 +20°C° 0 mm 3 mps 757 mmHg 63%

Tomorrow, 16 July, Thursday

Time Temperature Precipitation Wind Pressure Humidity
00:00 +19°C° 0 mm 3 mps 756 mmHg 64%
01:00 +19°C° 0 mm 3 mps 756 mmHg 66%
02:00 +18°C° 0 mm 3 mps 756 mmHg 67%
03:00 +18°C° 0 mm 2 mps 756 mmHg 68%
04:00 +17°C° 0 mm 2 mps 756 mmHg 69%
05:00 +17°C° 0 mm 2 mps 756 mmHg 70%
06:00 +19°C° 0 mm 2 mps 756 mmHg 63%
07:00 +21°C° 0 mm 2 mps 756 mmHg 57%
08:00 +24°C° 0 mm 2 mps 756 mmHg 51%
09:00 +25°C° 0 mm 2 mps 756 mmHg 47%
10:00 +26°C° 0 mm 3 mps 755 mmHg 43%
11:00 +28°C° 0 mm 3 mps 755 mmHg 40%
12:00 +28°C° 0 mm 3 mps 755 mmHg 38%
13:00 +29°C° 0 mm 2 mps 755 mmHg 37%
14:00 +29°C° 0 mm 2 mps 755 mmHg 35%
15:00 +29°C° 0 mm 2 mps 754 mmHg 37%
16:00 +28°C° 0 mm 3 mps 754 mmHg 39%
17:00 +28°C° 0 mm 3 mps 754 mmHg 42%
18:00 +27°C° 0 mm 3 mps 754 mmHg 46%
19:00 +25°C° 0 mm 3 mps 754 mmHg 51%
20:00 +24°C° 0 mm 3 mps 754 mmHg 56%
21:00 +22°C° 0 mm 3 mps 754 mmHg 58%
22:00 +21°C° 0 mm 3 mps 754 mmHg 61%
23:00 +20°C° 0 mm 2 mps 754 mmHg 63%

Day after tomorrow, 17 July, Friday

Time Temperature Precipitation Wind Pressure Humidity
00:00 +20°C° 0 mm 2 mps 754 mmHg 64%
01:00 +20°C° 0 mm 2 mps 754 mmHg 64%
02:00 +19°C° 0 mm 2 mps 754 mmHg 65%
03:00 +20°C° 0 mm 1 mps 754 mmHg 66%
04:00 +20°C° 0 mm 1 mps 754 mmHg 66%
05:00 +19°C° 0 mm 1 mps 754 mmHg 67%
06:00 +21°C° 0 mm 1 mps 754 mmHg 62%
07:00 +23°C° 0 mm 1 mps 755 mmHg 57%
08:00 +24°C° 0 mm 1 mps 755 mmHg 51%
09:00 +26°C° 0 mm 1 mps 755 mmHg 47%
10:00 +27°C° 0 mm 1 mps 755 mmHg 43%
11:00 +29°C° 0 mm 1 mps 755 mmHg 39%
12:00 +30°C° 0 mm 2 mps 754 mmHg 37%
13:00 +30°C° 0 mm 2 mps 754 mmHg 36%
14:00 +31°C° 0 mm 2 mps 754 mmHg 34%
15:00 +31°C° 0 mm 2 mps 754 mmHg 33%
16:00 +31°C° 0 mm 2 mps 754 mmHg 33%
17:00 +31°C° 0 mm 2 mps 754 mmHg 33%
18:00 +29°C° 0 mm 2 mps 754 mmHg 37%
19:00 +27°C° 0 mm 3 mps 754 mmHg 42%
20:00 +26°C° 0 mm 3 mps 754 mmHg 46%
21:00 +25°C° 0 mm 3 mps 755 mmHg 48%
22:00 +24°C° 0 mm 2 mps 755 mmHg 50%
23:00 +23°C° 0 mm 2 mps 755 mmHg 52%

18 July, Saturday

Time Temperature Precipitation Wind Pressure Humidity
00:00 +22°C° 0 mm 1 mps 755 mmHg 54%
01:00 +22°C° 0 mm 1 mps 755 mmHg 55%
02:00 +19°C° 0 mm 0 mps 755 mmHg 57%
03:00 +19°C° 0 mm 0 mps 755 mmHg 57%
04:00 +19°C° 0 mm 0 mps 755 mmHg 57%
05:00 +20°C° 0 mm 1 mps 755 mmHg 57%
06:00 +23°C° 0 mm 1 mps 755 mmHg 51%
07:00 +25°C° 0 mm 2 mps 756 mmHg 46%
08:00 +27°C° 0 mm 2 mps 756 mmHg 40%
09:00 +28°C° 0 mm 3 mps 756 mmHg 38%
10:00 +30°C° 0 mm 3 mps 756 mmHg 36%
11:00 +31°C° 0 mm 3 mps 756 mmHg 34%
12:00 +31°C° 0 mm 3 mps 755 mmHg 34%
13:00 +33°C° 0 mm 3 mps 755 mmHg 33%
14:00 +33°C° 0 mm 4 mps 755 mmHg 33%
15:00 +33°C° 0 mm 4 mps 755 mmHg 34%
16:00 +32°C° 0 mm 4 mps 755 mmHg 34%
17:00 +32°C° 0 mm 4 mps 754 mmHg 35%
18:00 +29°C° 0 mm 4 mps 755 mmHg 40%
19:00 +27°C° 0 mm 3 mps 755 mmHg 45%
20:00 +26°C° 0 mm 3 mps 755 mmHg 50%
21:00 +25°C° 0 mm 2 mps 755 mmHg 53%
22:00 +24°C° 0 mm 2 mps 755 mmHg 55%
23:00 +23°C° 0 mm 1 mps 755 mmHg 58%

19 July, Sunday

Time Temperature Precipitation Wind Pressure Humidity
00:00 +23°C° 0 mm 2 mps 755 mmHg 57%
01:00 +23°C° 0 mm 2 mps 755 mmHg 56%
02:00 +23°C° 0 mm 2 mps 755 mmHg 56%
03:00 +21°C° 0 mm 3 mps 755 mmHg 63%
04:00 +21°C° 0 mm 3 mps 755 mmHg 71%
05:00 +20°C° 0 mm 3 mps 754 mmHg 79%
06:00 +22°C° 0.1 mm 4 mps 754 mmHg 74%
07:00 +25°C° 0.1 mm 4 mps 754 mmHg 68%
08:00 +27°C° 0.1 mm 5 mps 754 mmHg 63%
09:00 +28°C° 0.2 mm 4 mps 754 mmHg 57%
10:00 +30°C° 0.2 mm 4 mps 754 mmHg 52%
11:00 +31°C° 0.2 mm 3 mps 754 mmHg 46%
12:00 +31°C° 0.1 mm 3 mps 754 mmHg 44%
13:00 +32°C° 0.1 mm 2 mps 753 mmHg 42%
14:00 +32°C° 0.1 mm 2 mps 753 mmHg 39%
15:00 +32°C° 0.1 mm 2 mps 753 mmHg 41%
16:00 +33°C° 0.1 mm 3 mps 753 mmHg 42%
17:00 +31°C° 0.1 mm 3 mps 753 mmHg 43%
18:00 +30°C° 0.2 mm 3 mps 753 mmHg 50%
19:00 +28°C° 0.2 mm 2 mps 753 mmHg 56%
20:00 +26°C° 0.2 mm 2 mps 753 mmHg 62%
21:00 +25°C° 0.3 mm 2 mps 753 mmHg 67%
22:00 +24°C° 0.3 mm 2 mps 753 mmHg 73%
23:00 +23°C° 0.3 mm 1 mps 754 mmHg 78%

20 July, Monday

Time Temperature Precipitation Wind Pressure Humidity
00:00 +23°C° 0 mm 2 mps 753 mmHg 80%
01:00 +21°C° 0 mm 2 mps 753 mmHg 82%
02:00 +21°C° 0 mm 2 mps 753 mmHg 84%
03:00 +20°C° 0 mm 2 mps 753 mmHg 85%
04:00 +20°C° 0 mm 2 mps 753 mmHg 87%
05:00 +19°C° 0 mm 2 mps 753 mmHg 88%
06:00 +21°C° 0 mm 3 mps 753 mmHg 82%
07:00 +22°C° 0 mm 3 mps 753 mmHg 75%
08:00 +25°C° 0 mm 3 mps 753 mmHg 68%
09:00 +26°C° 0 mm 3 mps 753 mmHg 62%
10:00 +28°C° 0 mm 3 mps 753 mmHg 55%
11:00 +29°C° 0 mm 3 mps 753 mmHg 48%
12:00 +30°C° 0 mm 3 mps 753 mmHg 46%
13:00 +30°C° 0 mm 3 mps 752 mmHg 44%
14:00 +30°C° 0 mm 3 mps 752 mmHg 42%
15:00 +30°C° 0 mm 4 mps 752 mmHg 42%
16:00 +30°C° 0 mm 4 mps 752 mmHg 42%
17:00 +30°C° 0 mm 4 mps 751 mmHg 42%
18:00 +29°C° 0 mm 3 mps 752 mmHg 46%
19:00 +27°C° 0 mm 3 mps 752 mmHg 50%
20:00 +26°C° 0 mm 3 mps 752 mmHg 54%
21:00 +25°C° 0 mm 3 mps 752 mmHg 57%
22:00 +24°C° 0 mm 3 mps 752 mmHg 60%
23:00 +22°C° 0 mm 3 mps 752 mmHg 63%
Show more